WetterOnline ( https://www.wetteronline.de )

Wetter aktuell Lohr a. Main

Aktuelles Wetter: Neuhütten/Spessart (340m)

6-stündlich | Neueste Meldungen
Ortszeit Temperatur Wetter
Do, 25.07. 2:00 11.6° C leicht bewölkt
Mi, 24.07. 20:00 19.5° C wolkenlos
Mi, 24.07. 14:00 20.0° C wolkig
Mi, 24.07. 8:00 15.0° C bedeckt
Mi, 24.07. 2:00 15.5° C Nebel
Di, 23.07. 20:00 17.9° C leichter Regen
Di, 23.07. 14:00 21.8° C bedeckt
Di, 23.07. 8:00 17.6° C wolkig
Ortszeit Temperatur Wetter
Do, 25.07. 6:30 9.8° C Nebel
Do, 25.07. 6:20 9.8° C Nebel
Do, 25.07. 6:10 9.9° C Nebel
Do, 25.07. 6:00 9.7° C Nebel
Do, 25.07. 5:50 9.7° C Nebel
Do, 25.07. 5:40 9.7° C Nebel
Do, 25.07. 5:30 9.8° C Nebel
Do, 25.07. 5:00 9.9° C Nebel
Do, 25.07. 4:30 10.4° C Nebel
Do, 25.07. 4:00 10.3° C Nebel
Do, 25.07. 3:30 10.6° C Nebel
Ortszeit Relative Feuchte Sichtweite
Do, 25.07. 2:00 98% 10 km
Mi, 24.07. 20:00 63% 50 km
Mi, 24.07. 14:00 60% 45 km
Mi, 24.07. 8:00 94% 17 km
Mi, 24.07. 2:00 96% 27 km
Di, 23.07. 20:00 96% 6 km
Di, 23.07. 14:00 66% 55 km
Di, 23.07. 8:00 71% 60 km
Ortszeit Relative Feuchte Sichtweite
Do, 25.07. 6:30 100% <100 m
Do, 25.07. 6:20 100% -
Do, 25.07. 6:10 99% -
Do, 25.07. 6:00 100% <100 m
Do, 25.07. 5:50 100% -
Do, 25.07. 5:40 100% -
Do, 25.07. 5:30 100% <100 m
Do, 25.07. 5:00 99% <100 m
Do, 25.07. 4:30 100% <100 m
Do, 25.07. 4:00 99% 1.1 km
Do, 25.07. 3:30 99% 100 m
Ortszeit Niederschlagsmenge Niederschlagsart
Do, 25.07. 2:00 0.0 l/m2 in 6 Std. -
Mi, 24.07. 20:00 0.1 l/m2 in 12 Std. -
Mi, 24.07. 14:00 0.1 l/m2 in 6 Std. Regen
Mi, 24.07. 8:00 20 l/m2 in 12 Std. Regen
Mi, 24.07. 2:00 20 l/m2 in 6 Std. Regen
Di, 23.07. 20:00 3 l/m2 in 12 Std. Regen
Di, 23.07. 14:00 0.0 l/m2 in 6 Std. -
Di, 23.07. 8:00 0.0 l/m2 in 12 Std. -
Ortszeit Niederschlagsmenge Niederschlagsart
Do, 25.07. 6:30 0.0 l/m2 in 30 Min -
Do, 25.07. 6:20 keine Meldung -
Do, 25.07. 6:10 keine Meldung -
Do, 25.07. 6:00 0.0 l/m2 in 1 Std. -
Do, 25.07. 5:50 keine Meldung -
Do, 25.07. 5:40 keine Meldung -
Do, 25.07. 5:30 0.0 l/m2 in 30 Min -
Do, 25.07. 5:00 0.0 l/m2 in 1 Std. -
Do, 25.07. 4:30 0.0 l/m2 in 30 Min -
Do, 25.07. 4:00 0.0 l/m2 in 1 Std. -
Do, 25.07. 3:30 0.0 l/m2 in 30 Min -
Ortszeit Stärke Spitze Richtung
km/h Bft. km/h Grad Sektor
Do, 25.07. 2:00 0 0 11 - -
Mi, 24.07. 20:00 4 1 25 300° NW
Mi, 24.07. 14:00 6 1 30 300° NW
Mi, 24.07. 8:00 4 1 18 270° W
Mi, 24.07. 2:00 7 2 18 250° W
Di, 23.07. 20:00 4 1 47 270° W
Di, 23.07. 14:00 7 2 30 250° W
Di, 23.07. 8:00 6 1 13 270° W
Ortszeit Stärke Spitze Richtung
km/h Bft. km/h Grad Sektor
Do, 25.07. 6:30 0 0 4 - -
Do, 25.07. 6:20 2 1 - 340° N
Do, 25.07. 6:10 2 1 - 330° NW
Do, 25.07. 6:00 2 1 6 260° W
Do, 25.07. 5:50 2 1 - 260° W
Do, 25.07. 5:40 2 1 - 310° NW
Do, 25.07. 5:30 4 1 4 220° SW
Do, 25.07. 5:00 0 0 4 - -
Do, 25.07. 4:30 4 1 4 270° W
Do, 25.07. 4:00 0 0 4 - -
Do, 25.07. 3:30 4 1 4 230° SW
Ortszeit Untergrenze Bedeckung Gattung
total tief tief mittel hoch
Do, 25.07. 2:00 <30 m 2/8 0/8 - - -
Mi, 24.07. 20:00 - 0/8 0/8 - - -
Mi, 24.07. 14:00 990 m 6/8 6/8 - - -
Mi, 24.07. 8:00 210 m 8/8 8/8 - - -
Mi, 24.07. 2:00 270 m 2/8 1/8 - - -
Di, 23.07. 20:00 360 m 8/8 8/8 - - -
Di, 23.07. 14:00 1500 m 8/8 8/8 - - -
Di, 23.07. 8:00 2400 m 7/8 7/8 - - -
Ortszeit Bedeckungsgrad in Achtel und Wolkenuntergrenze
Do, 25.07. 6:30 8(<30m)
Do, 25.07. 6:20 8(<30m)
Do, 25.07. 6:10 8
Do, 25.07. 6:00 8(<30m)
Do, 25.07. 5:50 8(<30m)
Do, 25.07. 5:40 8
Do, 25.07. 5:30 8(<30m)
Do, 25.07. 5:00 8(<30m)
Do, 25.07. 4:30 8(<30m)
Do, 25.07. 4:00 7(<30m)
Do, 25.07. 3:30 6(<30m) 6(9000m)
Ortszeit Luftdruck NN (hPa) Tendenz (hPa in 3 Std.)
Do, 25.07. 2:00 1019 - 0,2
Mi, 24.07. 20:00 1018 - 0,7
Mi, 24.07. 14:00 1020 - 0,3
Mi, 24.07. 8:00 1020 + 0,8
Mi, 24.07. 2:00 1019 + 0,9
Di, 23.07. 20:00 1017 - 0,2
Di, 23.07. 14:00 1018 - 0,6
Di, 23.07. 8:00 1019 + 0,2
Ortszeit Luftdruck NN (hPa) Tendenz (hPa in 3 Std.)
Do, 25.07. 6:30 1019 - 0,6
Do, 25.07. 6:20 1019 keine Meldung
Do, 25.07. 6:10 1019 keine Meldung
Do, 25.07. 6:00 1019 - 0,7
Do, 25.07. 5:50 1019 keine Meldung
Do, 25.07. 5:40 1019 keine Meldung
Do, 25.07. 5:30 1019 - 0,8
Do, 25.07. 5:00 1019 - 0,7
Do, 25.07. 4:30 1019 - 0,9
Do, 25.07. 4:00 1019 - 0,8
Do, 25.07. 3:30 1019 - 0,6
Ortszeit Schneehöhe (cm)
Do, 25.07. 2:00 0
Mi, 24.07. 20:00 0
Mi, 24.07. 14:00 0
Mi, 24.07. 8:00 0
Mi, 24.07. 2:00 0
Di, 23.07. 20:00 0
Di, 23.07. 14:00 0
Di, 23.07. 8:00 0
Ortszeit Schneehöhe (cm)
Do, 25.07. 6:30 -
Do, 25.07. 6:20 0
Do, 25.07. 6:10 -
Do, 25.07. 6:00 0
Do, 25.07. 5:50 0
Do, 25.07. 5:40 -
Do, 25.07. 5:30 0
Do, 25.07. 5:00 0
Do, 25.07. 4:30 0
Do, 25.07. 4:00 0
Do, 25.07. 3:30 0
Link zu dieser Seite / Seite empfehlen

Das Wetter in ...